SCP
-0 0 0 -0 0 0 0 0 0 0 0 0 0 0 0 0 0 0 0 0 0 0 0 0 0 0 0 0 0 0 0 0 0 0 0 0 0 0 0 0 0 0 0 0 0 0 0 0 0 0 0 0 0 0
-0 0 -0 0 0 -0 0 0 0 0 0 0 0 0 0 0 0 0 0 0 0 0 0 0 0 0 0 0 0 0 0 0 0 0 0 0 0 0 0 0 0 0 0 0 0 0 0 0 0 0 0 0 0 0
0 0 0 0 0 0 -0 0 0 0 0 0 0 0 0 0 0 0 0 0 0 -0 -0 -0 0 0 0 0 0 0 0 0 0 0 0 0 0 0 0 0 0 0 0 0 0 0 0 0 0 0 0 0 0 0
-0 -0 -0 0 0 0 0 0 0 0 0 0 0 0 0 0 0 0 0 0 0 0 -0 -0 0 0 0 0 0 0 0 0 0 0 0 0 0 0 0 0 0 0 0 0 0 0 0 0 0 0 0 0 0 0
-0 -0 -0 -0 0 0 0 0 0 0 0 0 0 0 0 0 0 0 0 0 0 0 0 -0 0 0 0 0 0 0 0 0 0 0 0 0 0 0 0 0 0 0 0 0 0 0 0 0 0 0 0 0 0 0
0 0 0 0 0 0 0 0 0 0 0 0 0 -0 -0 0 0 0 0 0 -0 -0 0 0 0 0 0 0 0 0 0 0 0 0 0 0 0 0 0 0 0 0 0 0 0 0 0 0 0 0 0 0 0 0
0 0 0 0 0 0 0 0 0 0 0 0 0 0 0 0 0 0 0 -0 0 0 0 0 0 0 0 0 0 0 0 0 0 0 0 0 0 0 0 0 0 0 0 0 0 0 0 0 0 0 0 0 0 0
0 0 0 -0 -0 0 0 0 0 0 0 0 -0 -0 -0 -0 0 0 0 0 0 0 0 0 0 0 0 0 0 0 0 0 0 0 0 0 0 0 0 0 0 0 0 0 0 0 0 0 0 0 0 0 0 0
0 0 -0 0 -0 -0 -0 -0 -0 -0 -0 -0 0 -0 0 0 0 0 0 -0 0 0 0 0 0 0 0 0 0 0 0 0 0 0 0 0 0 0 0 0 0 0 0 0 0 0 0 0 0 0 0 0 0 0
0 -0 -0 -0 0 0 0 0 0 0 0 0 0 -0 0 0 0 0 0 0 0 -0 0 0 0 0 0 -0 0 0 0 0 0 0 0 0 0 0 0 0 0 0 0 0 0 0 0 0 0 0 0 0 0 0
0 0 -0 -0 -0 0 0 0 0 0 -0 0 0 0 0 0 0 0 0 0 0 0 0 0 0 0 0 0 0 0 0 0 0 0 0 0 0 0 0 0 0 0 0 0 0 0 0 0 0 0 0 0 0 0
0 0 0 0 0 0 -0 -0 -0 0 0 0 0 0 0 0 0 -0 -0 0 0 0 0 0 0 0 0 0 0 0 0 0 0 0 0 0 0 0 0 0 0 0 0 0 0 0 0 0 0 0 0 0 0 0
0 0 0 0 0 0 -0 0 -0 -0 0 0 0 0 0 0 0 0 0 0 0 0 0 0 0 0 0 0 0 0 0 0 0 0 0 0 0 0 0 0 0 0 0 0 0 0 0 0 0 0 0 0 0 0
0 0 0 0 0 0 -0 -0 -0 -0 -0 0 0 -0 -0 0 0 0 0 0 0 0 0 0 0 0 0 0 0 0 0 0 0 0 0 0 0 0 0 0 0 0 0 0 0 0 0 0 0 0 0 0 0 0
-0 -0 -0 -0 -0 -0 -0 -0 -0 0 0 0 0 -0 0 0 0 0 0 0 0 0 0 0 0 0 0 0 0 0 0 0 0 0 0 0 0 0 0 0 0 0 0 0 0 0 0 0 0 0 0 0 0 0
-0 -0 -0 -0 -0 -0 -0 -0 -0 0 0 0 0 0 0 0 0 0 0 0 0 0 0 0 0 0 0 0 0 0 0 0 0 0 0 0 0 0 0 0 0 0 0 0 0 0 0 0 0 0 0 0 0 0
-0 -0 -0 0 -0 -0 0 0 0 0 0 0 0 0 0 0 0 0 0 0 0 0 0 0 -0 -0 0 0 0 0 0 0 0 0 0 0 0 0 0 0 0 0 0 0 0 0 0 0 0 0 0 0 0 0
0 0 0 0 0 0 0 0 0 0 0 0 0 0 0 0 0 0 0 -0 0 0 0 0 0 0 0 0 0 0 0 0 0 0 0 0 0 0 0 0 0 0 0 0 0 0 0 0 0 0 0 0 0 0
0 0 -0 -0 0 0 0 0 0 0 0 0 0 0 0 0 -0 -0 -0 -0 0 0 0 0 0 0 0 0 0 0 0 0 0 0 0 0 0 0 0 0 0 0 0 0 0 0 0 0 0 0 0 0 0 0
-0 -0 -0 -0 -0 0 0 0 0 -0 -0 0 0 -0 -0 -0 -0 -0 -0 -0 -0 0 0 0 0 0 0 0 0 0 0 0 0 0 0 0 0 0 0 0 0 0 0 0 0 0 0 0 0 0 0 0 0 0
0 0 -0 -0 0 0 0 0 0 0 0 -0 -0 0 0 0 -0 -0 -0 0 0 0 0 0 0 0 0 0 0 0 0 0 0 0 0 0 0 0 0 0 0 0 0 0 0 0 0 0 0 0 0 0 0 0
-0 -0 -0 0 0 0 0 0 -0 -0 -0 -0 -0 -0 0 0 0 0 0 0 0 0 0 0 0 0 0 0 0 0 0 0 0 0 0 0 0 0 0 0 0 0 0 0 0 0 0 0 0 0 0 0 0 0
-0 0 0 0 -0 -0 -0 0 -0 -0 -0 -0 -0 -0 -0 0 0 -0 0 0 0 0 0 0 0 0 0 0 0 0 0 0 0 0 0 0 0 0 0 0 0 0 0 0 0 0 0 0 0 0 0 0 0 0
0 0 0 -0 0 -0 -0 0 -0 0 0 0 -0 0 0 0 0 0 0 0 0 0 0 0 0 0 0 0 0 0 0 0 0 0 0 0 0 0 0 0 0 0 0 0 0 0 0 0 0 0 0 0 0 0
0 0 0 0 -0 -0 0 0 -0 -0 -0 0 0 0 0 0 0 0 0 0 0 0 0 0 0 0 0 0 0 0 0 0 0 0 0 0 0 0 0 0 0 0 0 0 0 0 0 0 0 0 0 0 0 0
0 0 0 -0 0 -0 0 -0 0 0 0 0 0 0 0 0 0 0 0 0 0 0 0 0 0 0 0 0 0 0 0 0 0 0 0 0 0 0 0 0 0 0 0 0 0 0 0 0 0 0 0 0 0 0
0 0 0 0 0 0 0 0 0 0 0 0 0 0 0 0 0 0 0 0 0 0 0 0 0 0 0 0 0 0 0 0 0 0 0 0 0 0 0 0 0 0 0 0 0 0 0 0 0 0 0 0 0 0
0 0 0 0 0 0 0 0 0 0 0 0 0 0 0 0 0 0 0 0 0 0 0 0 0 0 0 0 0 0 0 0 0 0 0 0 0 0 0 0 0 0 0 0 0 0 0 0 0 0 0 0 0 0
0 0 0 0 0 0 0 0 0 -0 -0 -0 0 0 0 0 0 0 0 0 0 0 0 0 0 0 0 0 0 0 0 0 0 0 0 0 0 0 0 0 0 0 0 0 0 0 0 0 0 0 0 0 0 0
0 0 0 0 0 0 0 -0 -0 -0 0 0 0 0 0 0 0 0 0 0 0 0 0 0 0 0 0 0 0 0 0 0 0 0 0 0 0 0 0 0 0 0 0 0 0 0 0 0 0 0 0 0 0 0
0 0 0 0 0 -0 -0 -0 -0 0 0 0 0 0 0 0 0 0 0 0 0 0 0 0 0 0 0 0 0 0 0 0 0 0 0 0 0 0 0 0 0 0 0 0 0 0 0 0 0 0 0 0 0 0
0 0 -0 -0 -0 -0 -0 -0 0 0 0 0 0 0 0 0 0 0 0 0 0 0 0 0 0 0 0 0 0 0 0 0 0 0 0 0 0 0 0 0 0 0 0 0 0 0 0 0 0 0 0 0 0 0
0 0 0 0 -0 -0 -0 0 0 0 0 0 0 0 0 0 0 0 0 0 0 0 0 0 0 0 0 0 0 0 0 0 0 0 0 0 0 0 0 0 0 0 0 0 0 0 0 0 0 0 0 0 0 0
Wind_Speed_500mb
33 32 33 42 46 52 58 84 78 87 89 85 119 115 110 129 137 87 56 59 57 13 13 18 29 37 43 66 16 21 19 18 5 11 7 7 6 10 10 7 11 14 15 7 6 4 16 22 16 20 15 7 25 43
19 27 32 39 46 53 58 66 78 84 82 104 120 107 116 131 123 89 53 38 48 25 13 24 28 27 30 81 62 55 16 21 27 8 6 4 5 3 13 12 1 8 12 12 18 14 5 50 15 44 13 16 20 50
20 24 32 34 38 51 60 65 77 83 102 120 104 108 103 108 112 89 54 49 34 20 31 31 39 36 40 69 87 37 36 26 25 29 11 6 7 7 9 11 5 7 8 7 7 11 15 30 49 24 35 27 22 50
72 60 41 39 47 55 63 79 106 119 112 94 101 107 106 106 95 78 54 59 56 10 7 22 23 39 36 64 73 86 24 54 15 21 8 6 7 14 7 2 8 8 16 12 6 10 5 34 43 43 35 33 31 47
52 59 69 72 80 85 90 89 83 85 89 86 85 88 87 78 74 60 65 51 66 41 4 13 34 18 28 35 56 67 75 33 34 8 4 6 6 8 1 3 6 14 13 11 13 34 23 27 60 48 40 38 43 55
56 61 60 64 71 74 77 82 83 83 84 83 77 72 74 77 87 54 15 51 50 61 17 6 10 10 13 13 43 57 74 69 30 13 9 9 9 11 10 11 10 42 31 20 6 17 41 21 36 50 46 47 50 54
51 53 56 62 65 68 73 73 75 78 74 74 72 71 65 63 68 47 18 25 63 64 14 6 5 3 11 2 24 40 61 51 38 16 7 9 7 9 4 9 4 9 38 38 23 21 19 32 23 46 50 53 51 49
42 47 52 55 59 63 66 66 69 70 68 64 60 60 62 61 54 30 5 43 56 29 4 6 5 3 12 11 4 24 29 31 24 19 7 6 4 1 7 7 10 13 19 23 32 33 23 41 33 48 48 52 54 56
48 45 44 50 56 59 64 69 71 75 79 76 68 66 61 43 30 30 10 41 33 13 7 7 4 3 2 2 8 5 16 5 10 5 6 13 4 9 3 5 16 19 15 11 15 12 15 36 49 55 56 57 63 64
45 46 48 47 50 58 65 69 67 68 67 68 69 36 18 34 33 28 14 25 14 7 9 5 3 4 7 5 8 5 5 6 8 6 21 6 5 1 4 5 8 19 16 16 21 7 18 26 40 47 49 53 58 65
40 40 43 46 50 61 69 71 69 66 70 40 11 9 45 58 30 6 7 5 9 6 14 11 21 4 5 6 5 7 2 3 7 6 8 5 1 6 11 6 15 19 24 21 1 6 14 24 46 49 48 48 53 59
39 43 44 40 45 56 58 64 69 59 22 10 24 46 30 14 10 7 5 4 9 10 8 5 11 11 3 6 6 3 3 2 7 4 5 5 6 19 4 8 14 17 18 17 8 11 23 33 41 48 49 52 55 55
37 41 40 38 47 59 68 64 24 28 33 40 14 10 6 1 5 15 14 7 5 1 2 8 5 9 8 6 5 2 5 5 4 5 5 7 18 15 7 16 20 20 11 15 27 23 27 37 39 43 48 46 49 52
39 39 37 36 42 54 60 33 12 36 8 7 6 9 6 6 6 3 4 2 2 1 5 11 9 5 3 6 1 5 2 4 6 7 7 10 33 17 10 15 21 28 21 25 29 31 34 37 39 37 40 44 47 50
32 29 32 37 38 37 37 36 29 14 3 9 12 9 7 9 11 12 7 6 16 13 9 10 12 10 8 5 8 7 9 10 11 8 8 41 29 18 21 25 28 27 25 27 28 29 33 38 44 47 42 40 37 36
34 32 34 33 29 25 22 20 14 12 9 12 20 11 24 9 13 22 32 23 28 21 12 18 9 7 11 7 11 13 7 9 9 11 42 37 24 24 26 29 30 28 29 33 37 41 44 44 45 44 37 30 26 26
34 31 34 34 42 36 25 31 12 13 15 12 11 48 25 9 15 23 31 38 24 12 7 7 13 11 8 9 9 10 7 8 32 36 41 38 33 30 32 36 37 38 41 41 40 38 40 38 36 34 36 32 28 25
29 44 52 43 37 52 49 14 12 18 17 21 10 28 38 39 30 38 47 44 14 12 11 10 10 15 10 8 6 9 13 28 27 35 44 43 38 38 41 43 41 41 42 41 40 38 33 28 28 30 27 24 19 15
54 54 50 43 21 14 11 17 18 14 27 14 26 24 34 39 59 54 45 43 50 35 22 15 13 9 8 11 11 24 23 19 20 37 48 47 46 45 44 43 42 41 41 39 36 36 33 30 29 23 18 12 9 8
58 56 41 20 16 11 14 15 15 19 12 10 18 46 36 34 47 65 76 65 51 22 22 12 8 15 12 21 21 22 19 19 26 40 53 53 50 47 48 46 47 43 43 41 40 36 34 33 29 22 15 11 6 5
34 35 40 38 33 25 18 12 15 19 18 13 16 24 26 57 74 64 64 54 46 20 16 25 28 27 27 28 33 41 46 42 48 49 41 51 50 51 50 48 43 42 44 41 38 34 30 30 24 18 15 13 12 12
49 37 25 16 16 16 21 23 16 13 12 11 12 14 14 13 18 36 42 40 25 35 22 28 29 30 37 43 42 45 44 48 50 51 49 47 51 51 50 46 40 42 40 38 32 30 26 23 19 18 16 16 17 19
26 17 16 16 15 15 9 17 13 14 8 7 9 10 10 12 14 19 16 20 18 29 26 29 33 39 44 44 44 46 44 44 51 51 48 48 47 44 40 38 35 33 32 31 27 23 23 23 22 23 23 24 24 24
18 15 16 15 19 7 10 13 11 10 11 8 6 7 8 9 12 16 8 10 23 28 28 24 24 32 35 38 44 42 40 34 37 40 39 34 36 38 34 34 32 32 32 28 26 26 26 27 29 29 30 31 32 33
17 24 15 13 16 13 11 9 10 9 8 7 8 7 5 8 6 7 4 5 20 26 28 26 27 30 35 35 34 34 30 27 28 31 35 32 31 28 27 28 28 28 26 24 27 29 31 32 33 33 33 34 35 35
16 25 13 9 8 10 3 7 8 6 6 8 9 7 8 8 9 7 4 4 9 14 17 19 19 20 26 25 24 24 25 24 20 24 28 26 25 26 27 26 27 29 31 33 33 33 34 34 35 34 34 34 36 38
12 10 18 18 11 17 13 17 13 12 9 7 3 6 7 9 4 5 9 7 10 13 15 16 16 17 20 20 21 23 22 17 18 23 24 24 25 28 30 31 33 33 34 34 35 36 37 37 37 37 38 38 38 39
13 17 10 18 23 24 8 7 7 6 4 7 9 9 8 9 4 7 10 15 14 14 12 13 15 17 16 14 15 15 15 17 19 20 22 25 28 29 30 29 28 28 30 33 34 34 34 35 36 36 37 37 36 35
17 12 15 19 17 19 20 9 6 6 5 5 9 4 7 8 15 22 23 16 11 5 5 7 7 9 11 11 10 10 12 14 18 19 24 27 25 25 26 26 26 27 27 27 29 31 32 33 33 34 35 35 36 34
12 13 14 14 11 9 16 9 17 21 20 23 21 27 30 26 23 23 17 13 6 1 2 4 6 9 6 4 5 7 12 18 22 23 23 24 24 24 25 25 25 28 30 31 30 30 30 31 30 30 30 30 31 31
12 11 15 15 13 13 39 46 42 39 38 31 37 38 28 19 22 22 17 13 9 7 5 4 3 1 2 6 9 14 17 20 21 21 22 22 23 23 24 26 30 30 30 29 30 31 31 30 31 31 31 32 32 32
12 12 14 9 10 36 9 7 8 11 9 9 10 13 14 11 12 20 17 14 10 7 3 1 2 3 8 12 15 16 17 19 22 24 25 25 25 25 27 29 29 28 28 28 29 29 29 29 30 31 31 32 33 33
26 32 29 16 12 13 10 6 8 8 9 6 6 6 5 7 8 17 19 14 9 5 2 2 6 7 11 14 16 17 19 21 24 25 26 27 28 30 31 31 29 27 27 27 27 28 28 29 30 31 32 33 33 34
Wind_Direction_500mb
21 37 85 149 167 172 182 181 176 180 183 187 187 190 180 182 180 178 170 187 195 183 293 255 201 188 175 197 172 159 158 208 122 182 170 208 210 196 138 221 196 162 158 177 114 143 262 161 119 175 214 200 220 191
49 65 94 126 148 160 166 168 172 175 179 178 179 174 180 183 184 178 177 189 206 204 250 321 264 227 212 196 183 179 186 163 182 168 184 109 190 229 145 232 253 217 196 178 190 205 198 187 205 200 199 223 211 194
68 110 113 127 145 156 159 160 167 177 172 170 172 173 178 183 182 182 179 179 185 205 277 268 260 218 208 194 200 183 202 189 200 209 166 182 207 134 155 221 214 243 188 183 126 209 220 212 222 216 224 235 228 199
96 103 123 129 147 159 165 159 159 158 163 163 168 176 181 182 183 181 179 196 190 139 249 269 234 238 217 202 201 207 206 213 216 197 177 161 169 195 201 222 192 205 151 166 260 265 291 241 227 226 219 218 203 187
83 108 118 125 128 141 147 148 146 148 155 163 168 171 175 170 178 183 185 191 203 197 300 274 285 230 200 194 205 208 212 218 213 180 147 215 150 135 99 118 239 200 179 171 211 209 193 227 222 212 206 201 192 185
85 93 104 116 120 128 136 142 148 150 153 155 154 160 163 165 179 173 173 207 212 230 268 294 293 158 108 204 205 206 209 222 221 207 204 220 202 188 165 193 232 211 215 235 235 235 211 229 201 201 199 196 191 189
94 99 106 112 121 128 134 138 143 148 152 156 156 160 158 156 168 165 187 211 201 194 249 274 308 261 328 255 211 206 207 208 215 224 223 165 213 205 158 187 214 267 231 229 243 202 191 200 199 190 193 186 185 181
101 107 111 117 123 128 130 133 136 140 142 144 147 151 157 165 175 209 59 151 182 192 282 284 264 342 20 30 271 156 162 185 204 200 166 146 166 129 250 220 219 238 215 212 194 211 253 203 190 187 187 181 173 171
96 103 119 125 125 132 134 138 139 141 143 144 143 148 151 162 180 207 144 163 151 191 195 198 251 254 128 57 295 100 145 133 175 160 191 154 166 217 245 170 190 178 173 185 207 207 199 194 177 180 181 178 175 165
97 108 111 120 135 138 139 141 144 142 142 143 144 149 158 180 165 157 109 167 196 232 244 214 251 257 209 154 12 47 60 141 157 203 142 177 234 2 49 304 216 175 171 154 149 149 177 177 175 170 172 173 173 165
108 112 111 117 125 140 141 145 143 141 148 144 123 131 145 151 141 91 92 137 186 238 214 228 195 245 234 119 189 64 239 131 158 169 179 180 180 13 350 164 164 162 145 121 109 123 232 220 185 174 170 173 171 167
115 117 127 122 127 140 141 145 144 143 155 136 122 131 141 127 122 133 165 193 218 215 188 171 182 187 157 89 97 27 318 34 161 122 135 130 21 355 13 158 159 161 164 171 179 189 182 189 188 179 171 169 169 165
120 123 127 128 130 137 141 137 143 155 125 131 134 126 185 309 144 165 195 194 166 119 149 184 132 141 115 92 52 126 51 70 12 49 69 29 347 9 88 131 127 123 121 142 126 158 164 169 172 176 164 159 156 153
131 132 131 140 145 146 156 171 174 171 338 20 70 73 41 25 25 26 275 342 27 30 121 125 81 82 81 75 133 113 110 80 67 45 42 352 344 5 49 98 99 92 109 121 132 142 147 151 149 149 151 147 145 145
146 148 143 146 155 162 167 195 200 23 77 35 25 52 37 9 13 7 15 43 21 42 81 98 84 66 28 60 17 27 46 58 35 16 343 329 347 33 65 81 91 101 111 116 122 125 127 132 132 129 134 141 144 140
159 152 148 152 172 183 201 189 207 344 45 62 40 7 351 8 5 13 7 9 24 28 39 39 54 70 43 38 48 14 55 44 351 330 324 353 27 51 70 79 83 91 100 108 115 119 122 123 124 123 125 125 129 145
140 145 158 151 159 169 177 134 82 52 48 50 38 20 20 12 13 5 3 350 17 39 48 47 47 26 26 49 43 19 34 350 325 346 19 41 57 69 81 83 87 95 100 103 107 109 112 117 122 124 122 127 142 149
157 156 145 136 133 99 72 60 81 66 61 37 63 35 49 41 20 18 15 26 61 70 48 60 55 38 39 44 34 8 343 354 30 34 49 69 83 89 92 94 97 99 102 105 106 107 109 111 112 112 121 126 135 135
150 159 171 153 139 81 71 47 48 81 43 47 29 49 53 44 37 47 50 57 74 85 90 64 54 41 42 22 338 347 358 28 46 58 68 74 82 86 90 93 94 95 95 95 96 96 98 99 99 105 112 127 140 136
137 140 134 144 115 86 75 51 59 75 60 80 56 57 57 37 37 44 48 46 53 56 48 51 43 31 39 26 30 32 50 97 86 73 69 73 77 82 83 86 88 92 92 93 94 96 96 95 93 91 91 88 69 24
141 122 108 82 63 69 83 74 71 105 121 99 96 70 75 48 42 38 39 45 55 39 61 57 67 65 73 74 72 74 77 83 84 87 82 79 81 84 84 84 87 87 85 81 80 79 76 73 66 57 43 29 14 349
135 133 117 79 70 66 62 43 87 100 82 95 54 56 52 36 38 37 46 46 58 44 52 57 63 73 71 69 74 78 82 87 88 90 90 91 84 80 77 77 75 75 75 71 65 59 54 47 34 18 3 352 339 326
119 95 65 53 78 67 52 34 57 34 64 34 37 45 35 46 39 35 64 39 45 41 59 68 79 83 84 85 86 84 83 84 84 81 79 79 80 78 76 72 68 66 63 57 47 38 29 20 9 2 356 348 341 334
100 58 43 50 54 80 74 42 52 55 58 38 54 61 46 53 57 65 66 43 26 54 69 78 85 89 89 83 77 75 74 72 80 83 77 71 70 68 62 59 53 51 49 40 29 22 15 6 0 353 348 344 341 339
67 18 35 20 40 68 50 28 14 51 54 16 70 45 15 57 69 68 74 78 46 60 66 72 77 78 81 82 82 80 76 68 68 75 71 61 57 54 51 45 39 36 29 15 8 3 358 353 350 349 348 345 343 343
71 26 47 26 18 72 28 65 50 68 61 54 52 64 56 69 65 71 79 97 78 65 65 68 69 78 82 81 84 80 74 65 55 60 62 49 43 38 32 22 14 5 0 358 355 353 353 351 349 349 348 346 344 342
60 27 45 40 82 96 82 72 72 69 61 51 30 44 59 68 94 87 118 116 113 90 76 72 72 75 82 84 81 76 71 64 44 44 40 31 18 10 4 1 360 358 357 354 353 351 349 349 346 344 341 340 337 332
71 49 67 14 61 46 94 59 53 61 56 50 76 46 108 153 137 133 126 124 114 99 81 71 71 72 78 82 77 64 46 35 29 22 9 359 353 351 352 353 354 354 350 348 349 348 347 347 346 344 342 341 341 338
53 74 75 37 55 51 40 48 70 59 39 61 104 109 106 96 130 138 144 141 133 103 31 37 61 71 77 72 58 41 26 12 1 347 341 343 346 345 347 348 348 348 350 350 348 346 344 344 345 345 345 344 344 342
50 46 89 52 61 45 20 47 91 94 100 102 101 110 103 106 119 144 152 157 166 170 69 88 104 104 87 57 17 356 344 340 339 340 343 345 346 344 346 348 348 346 346 346 346 348 348 346 346 345 344 344 345 345
86 73 72 65 80 113 109 94 94 92 91 95 119 120 121 125 136 142 157 172 184 186 148 116 125 132 337 339 334 333 336 337 341 344 347 345 344 344 345 346 345 343 343 343 345 346 347 346 346 347 347 347 345 344
55 78 120 107 119 156 95 94 87 91 82 73 84 109 122 136 161 176 183 186 163 121 130 184 265 306 320 324 330 336 337 341 344 345 345 344 342 341 339 339 339 339 339 339 340 341 342 343 343 343 343 342 341 340
85 86 94 97 119 179 204 131 83 87 81 91 111 142 143 155 160 182 180 174 158 161 187 306 318 328 334 332 335 338 340 341 343 343 341 339 337 335 333 333 333 333 330 331 334 336 337 337 337 337 337 338 338 337
Wind_Speed_850mb
33 32 33 42 46 52 58 84 78 87 89 85 119 115 110 129 137 87 56 59 57 13 13 18 29 37 43 66 16 21 19 18 5 11 7 7 6 10 10 7 11 14 15 7 6 4 16 22 16 20 15 7 25 43
19 27 32 39 46 53 58 66 78 84 82 104 120 107 116 131 123 89 53 38 48 25 13 24 28 27 30 81 62 55 16 21 27 8 6 4 5 3 13 12 1 8 12 12 18 14 5 50 15 44 13 16 20 50
20 24 32 34 38 51 60 65 77 83 102 120 104 108 103 108 112 89 54 49 34 20 31 31 39 36 40 69 87 37 36 26 25 29 11 6 7 7 9 11 5 7 8 7 7 11 15 30 49 24 35 27 22 50
72 60 41 39 47 55 63 79 106 119 112 94 101 107 106 106 95 78 54 59 56 10 7 22 23 39 36 64 73 86 24 54 15 21 8 6 7 14 7 2 8 8 16 12 6 10 5 34 43 43 35 33 31 47
52 59 69 72 80 85 90 89 83 85 89 86 85 88 87 78 74 60 65 51 66 41 4 13 34 18 28 35 56 67 75 33 34 8 4 6 6 8 1 3 6 14 13 11 13 34 23 27 60 48 40 38 43 55
56 61 60 64 71 74 77 82 83 83 84 83 77 72 74 77 87 54 15 51 50 61 17 6 10 10 13 13 43 57 74 69 30 13 9 9 9 11 10 11 10 42 31 20 6 17 41 21 36 50 46 47 50 54
51 53 56 62 65 68 73 73 75 78 74 74 72 71 65 63 68 47 18 25 63 64 14 6 5 3 11 2 24 40 61 51 38 16 7 9 7 9 4 9 4 9 38 38 23 21 19 32 23 46 50 53 51 49
42 47 52 55 59 63 66 66 69 70 68 64 60 60 62 61 54 30 5 43 56 29 4 6 5 3 12 11 4 24 29 31 24 19 7 6 4 1 7 7 10 13 19 23 32 33 23 41 33 48 48 52 54 56
48 45 44 50 56 59 64 69 71 75 79 76 68 66 61 43 30 30 10 41 33 13 7 7 4 3 2 2 8 5 16 5 10 5 6 13 4 9 3 5 16 19 15 11 15 12 15 36 49 55 56 57 63 64
45 46 48 47 50 58 65 69 67 68 67 68 69 36 18 34 33 28 14 25 14 7 9 5 3 4 7 5 8 5 5 6 8 6 21 6 5 1 4 5 8 19 16 16 21 7 18 26 40 47 49 53 58 65
40 40 43 46 50 61 69 71 69 66 70 40 11 9 45 58 30 6 7 5 9 6 14 11 21 4 5 6 5 7 2 3 7 6 8 5 1 6 11 6 15 19 24 21 1 6 14 24 46 49 48 48 53 59
39 43 44 40 45 56 58 64 69 59 22 10 24 46 30 14 10 7 5 4 9 10 8 5 11 11 3 6 6 3 3 2 7 4 5 5 6 19 4 8 14 17 18 17 8 11 23 33 41 48 49 52 55 55
37 41 40 38 47 59 68 64 24 28 33 40 14 10 6 1 5 15 14 7 5 1 2 8 5 9 8 6 5 2 5 5 4 5 5 7 18 15 7 16 20 20 11 15 27 23 27 37 39 43 48 46 49 52
39 39 37 36 42 54 60 33 12 36 8 7 6 9 6 6 6 3 4 2 2 1 5 11 9 5 3 6 1 5 2 4 6 7 7 10 33 17 10 15 21 28 21 25 29 31 34 37 39 37 40 44 47 50
32 29 32 37 38 37 37 36 29 14 3 9 12 9 7 9 11 12 7 6 16 13 9 10 12 10 8 5 8 7 9 10 11 8 8 41 29 18 21 25 28 27 25 27 28 29 33 38 44 47 42 40 37 36
34 32 34 33 29 25 22 20 14 12 9 12 20 11 24 9 13 22 32 23 28 21 12 18 9 7 11 7 11 13 7 9 9 11 42 37 24 24 26 29 30 28 29 33 37 41 44 44 45 44 37 30 26 26
34 31 34 34 42 36 25 31 12 13 15 12 11 48 25 9 15 23 31 38 24 12 7 7 13 11 8 9 9 10 7 8 32 36 41 38 33 30 32 36 37 38 41 41 40 38 40 38 36 34 36 32 28 25
29 44 52 43 37 52 49 14 12 18 17 21 10 28 38 39 30 38 47 44 14 12 11 10 10 15 10 8 6 9 13 28 27 35 44 43 38 38 41 43 41 41 42 41 40 38 33 28 28 30 27 24 19 15
54 54 50 43 21 14 11 17 18 14 27 14 26 24 34 39 59 54 45 43 50 35 22 15 13 9 8 11 11 24 23 19 20 37 48 47 46 45 44 43 42 41 41 39 36 36 33 30 29 23 18 12 9 8
58 56 41 20 16 11 14 15 15 19 12 10 18 46 36 34 47 65 76 65 51 22 22 12 8 15 12 21 21 22 19 19 26 40 53 53 50 47 48 46 47 43 43 41 40 36 34 33 29 22 15 11 6 5
34 35 40 38 33 25 18 12 15 19 18 13 16 24 26 57 74 64 64 54 46 20 16 25 28 27 27 28 33 41 46 42 48 49 41 51 50 51 50 48 43 42 44 41 38 34 30 30 24 18 15 13 12 12
49 37 25 16 16 16 21 23 16 13 12 11 12 14 14 13 18 36 42 40 25 35 22 28 29 30 37 43 42 45 44 48 50 51 49 47 51 51 50 46 40 42 40 38 32 30 26 23 19 18 16 16 17 19
26 17 16 16 15 15 9 17 13 14 8 7 9 10 10 12 14 19 16 20 18 29 26 29 33 39 44 44 44 46 44 44 51 51 48 48 47 44 40 38 35 33 32 31 27 23 23 23 22 23 23 24 24 24
18 15 16 15 19 7 10 13 11 10 11 8 6 7 8 9 12 16 8 10 23 28 28 24 24 32 35 38 44 42 40 34 37 40 39 34 36 38 34 34 32 32 32 28 26 26 26 27 29 29 30 31 32 33
17 24 15 13 16 13 11 9 10 9 8 7 8 7 5 8 6 7 4 5 20 26 28 26 27 30 35 35 34 34 30 27 28 31 35 32 31 28 27 28 28 28 26 24 27 29 31 32 33 33 33 34 35 35
16 25 13 9 8 10 3 7 8 6 6 8 9 7 8 8 9 7 4 4 9 14 17 19 19 20 26 25 24 24 25 24 20 24 28 26 25 26 27 26 27 29 31 33 33 33 34 34 35 34 34 34 36 38
12 10 18 18 11 17 13 17 13 12 9 7 3 6 7 9 4 5 9 7 10 13 15 16 16 17 20 20 21 23 22 17 18 23 24 24 25 28 30 31 33 33 34 34 35 36 37 37 37 37 38 38 38 39
13 17 10 18 23 24 8 7 7 6 4 7 9 9 8 9 4 7 10 15 14 14 12 13 15 17 16 14 15 15 15 17 19 20 22 25 28 29 30 29 28 28 30 33 34 34 34 35 36 36 37 37 36 35
17 12 15 19 17 19 20 9 6 6 5 5 9 4 7 8 15 22 23 16 11 5 5 7 7 9 11 11 10 10 12 14 18 19 24 27 25 25 26 26 26 27 27 27 29 31 32 33 33 34 35 35 36 34
12 13 14 14 11 9 16 9 17 21 20 23 21 27 30 26 23 23 17 13 6 1 2 4 6 9 6 4 5 7 12 18 22 23 23 24 24 24 25 25 25 28 30 31 30 30 30 31 30 30 30 30 31 31
12 11 15 15 13 13 39 46 42 39 38 31 37 38 28 19 22 22 17 13 9 7 5 4 3 1 2 6 9 14 17 20 21 21 22 22 23 23 24 26 30 30 30 29 30 31 31 30 31 31 31 32 32 32
12 12 14 9 10 36 9 7 8 11 9 9 10 13 14 11 12 20 17 14 10 7 3 1 2 3 8 12 15 16 17 19 22 24 25 25 25 25 27 29 29 28 28 28 29 29 29 29 30 31 31 32 33 33
26 32 29 16 12 13 10 6 8 8 9 6 6 6 5 7 8 17 19 14 9 5 2 2 6 7 11 14 16 17 19 21 24 25 26 27 28 30 31 31 29 27 27 27 27 28 28 29 30 31 32 33 33 34
Wind_Direction_850mb
21 37 85 149 167 172 182 181 176 180 183 187 187 190 180 182 180 178 170 187 195 183 293 255 201 188 175 197 172 159 158 208 122 182 170 208 210 196 138 221 196 162 158 177 114 143 262 161 119 175 214 200 220 191
49 65 94 126 148 160 166 168 172 175 179 178 179 174 180 183 184 178 177 189 206 204 250 321 264 227 212 196 183 179 186 163 182 168 184 109 190 229 145 232 253 217 196 178 190 205 198 187 205 200 199 223 211 194
68 110 113 127 145 156 159 160 167 177 172 170 172 173 178 183 182 182 179 179 185 205 277 268 260 218 208 194 200 183 202 189 200 209 166 182 207 134 155 221 214 243 188 183 126 209 220 212 222 216 224 235 228 199
96 103 123 129 147 159 165 159 159 158 163 163 168 176 181 182 183 181 179 196 190 139 249 269 234 238 217 202 201 207 206 213 216 197 177 161 169 195 201 222 192 205 151 166 260 265 291 241 227 226 219 218 203 187
83 108 118 125 128 141 147 148 146 148 155 163 168 171 175 170 178 183 185 191 203 197 300 274 285 230 200 194 205 208 212 218 213 180 147 215 150 135 99 118 239 200 179 171 211 209 193 227 222 212 206 201 192 185
85 93 104 116 120 128 136 142 148 150 153 155 154 160 163 165 179 173 173 207 212 230 268 294 293 158 108 204 205 206 209 222 221 207 204 220 202 188 165 193 232 211 215 235 235 235 211 229 201 201 199 196 191 189
94 99 106 112 121 128 134 138 143 148 152 156 156 160 158 156 168 165 187 211 201 194 249 274 308 261 328 255 211 206 207 208 215 224 223 165 213 205 158 187 214 267 231 229 243 202 191 200 199 190 193 186 185 181
101 107 111 117 123 128 130 133 136 140 142 144 147 151 157 165 175 209 59 151 182 192 282 284 264 342 20 30 271 156 162 185 204 200 166 146 166 129 250 220 219 238 215 212 194 211 253 203 190 187 187 181 173 171
96 103 119 125 125 132 134 138 139 141 143 144 143 148 151 162 180 207 144 163 151 191 195 198 251 254 128 57 295 100 145 133 175 160 191 154 166 217 245 170 190 178 173 185 207 207 199 194 177 180 181 178 175 165
97 108 111 120 135 138 139 141 144 142 142 143 144 149 158 180 165 157 109 167 196 232 244 214 251 257 209 154 12 47 60 141 157 203 142 177 234 2 49 304 216 175 171 154 149 149 177 177 175 170 172 173 173 165
108 112 111 117 125 140 141 145 143 141 148 144 123 131 145 151 141 91 92 137 186 238 214 228 195 245 234 119 189 64 239 131 158 169 179 180 180 13 350 164 164 162 145 121 109 123 232 220 185 174 170 173 171 167
115 117 127 122 127 140 141 145 144 143 155 136 122 131 141 127 122 133 165 193 218 215 188 171 182 187 157 89 97 27 318 34 161 122 135 130 21 355 13 158 159 161 164 171 179 189 182 189 188 179 171 169 169 165
120 123 127 128 130 137 141 137 143 155 125 131 134 126 185 309 144 165 195 194 166 119 149 184 132 141 115 92 52 126 51 70 12 49 69 29 347 9 88 131 127 123 121 142 126 158 164 169 172 176 164 159 156 153
131 132 131 140 145 146 156 171 174 171 338 20 70 73 41 25 25 26 275 342 27 30 121 125 81 82 81 75 133 113 110 80 67 45 42 352 344 5 49 98 99 92 109 121 132 142 147 151 149 149 151 147 145 145
146 148 143 146 155 162 167 195 200 23 77 35 25 52 37 9 13 7 15 43 21 42 81 98 84 66 28 60 17 27 46 58 35 16 343 329 347 33 65 81 91 101 111 116 122 125 127 132 132 129 134 141 144 140
159 152 148 152 172 183 201 189 207 344 45 62 40 7 351 8 5 13 7 9 24 28 39 39 54 70 43 38 48 14 55 44 351 330 324 353 27 51 70 79 83 91 100 108 115 119 122 123 124 123 125 125 129 145
140 145 158 151 159 169 177 134 82 52 48 50 38 20 20 12 13 5 3 350 17 39 48 47 47 26 26 49 43 19 34 350 325 346 19 41 57 69 81 83 87 95 100 103 107 109 112 117 122 124 122 127 142 149
157 156 145 136 133 99 72 60 81 66 61 37 63 35 49 41 20 18 15 26 61 70 48 60 55 38 39 44 34 8 343 354 30 34 49 69 83 89 92 94 97 99 102 105 106 107 109 111 112 112 121 126 135 135
150 159 171 153 139 81 71 47 48 81 43 47 29 49 53 44 37 47 50 57 74 85 90 64 54 41 42 22 338 347 358 28 46 58 68 74 82 86 90 93 94 95 95 95 96 96 98 99 99 105 112 127 140 136
137 140 134 144 115 86 75 51 59 75 60 80 56 57 57 37 37 44 48 46 53 56 48 51 43 31 39 26 30 32 50 97 86 73 69 73 77 82 83 86 88 92 92 93 94 96 96 95 93 91 91 88 69 24
141 122 108 82 63 69 83 74 71 105 121 99 96 70 75 48 42 38 39 45 55 39 61 57 67 65 73 74 72 74 77 83 84 87 82 79 81 84 84 84 87 87 85 81 80 79 76 73 66 57 43 29 14 349
135 133 117 79 70 66 62 43 87 100 82 95 54 56 52 36 38 37 46 46 58 44 52 57 63 73 71 69 74 78 82 87 88 90 90 91 84 80 77 77 75 75 75 71 65 59 54 47 34 18 3 352 339 326
119 95 65 53 78 67 52 34 57 34 64 34 37 45 35 46 39 35 64 39 45 41 59 68 79 83 84 85 86 84 83 84 84 81 79 79 80 78 76 72 68 66 63 57 47 38 29 20 9 2 356 348 341 334
100 58 43 50 54 80 74 42 52 55 58 38 54 61 46 53 57 65 66 43 26 54 69 78 85 89 89 83 77 75 74 72 80 83 77 71 70 68 62 59 53 51 49 40 29 22 15 6 0 353 348 344 341 339
67 18 35 20 40 68 50 28 14 51 54 16 70 45 15 57 69 68 74 78 46 60 66 72 77 78 81 82 82 80 76 68 68 75 71 61 57 54 51 45 39 36 29 15 8 3 358 353 350 349 348 345 343 343
71 26 47 26 18 72 28 65 50 68 61 54 52 64 56 69 65 71 79 97 78 65 65 68 69 78 82 81 84 80 74 65 55 60 62 49 43 38 32 22 14 5 0 358 355 353 353 351 349 349 348 346 344 342
60 27 45 40 82 96 82 72 72 69 61 51 30 44 59 68 94 87 118 116 113 90 76 72 72 75 82 84 81 76 71 64 44 44 40 31 18 10 4 1 360 358 357 354 353 351 349 349 346 344 341 340 337 332
71 49 67 14 61 46 94 59 53 61 56 50 76 46 108 153 137 133 126 124 114 99 81 71 71 72 78 82 77 64 46 35 29 22 9 359 353 351 352 353 354 354 350 348 349 348 347 347 346 344 342 341 341 338
53 74 75 37 55 51 40 48 70 59 39 61 104 109 106 96 130 138 144 141 133 103 31 37 61 71 77 72 58 41 26 12 1 347 341 343 346 345 347 348 348 348 350 350 348 346 344 344 345 345 345 344 344 342
50 46 89 52 61 45 20 47 91 94 100 102 101 110 103 106 119 144 152 157 166 170 69 88 104 104 87 57 17 356 344 340 339 340 343 345 346 344 346 348 348 346 346 346 346 348 348 346 346 345 344 344 345 345
86 73 72 65 80 113 109 94 94 92 91 95 119 120 121 125 136 142 157 172 184 186 148 116 125 132 337 339 334 333 336 337 341 344 347 345 344 344 345 346 345 343 343 343 345 346 347 346 346 347 347 347 345 344
55 78 120 107 119 156 95 94 87 91 82 73 84 109 122 136 161 176 183 186 163 121 130 184 265 306 320 324 330 336 337 341 344 345 345 344 342 341 339 339 339 339 339 339 340 341 342 343 343 343 343 342 341 340
85 86 94 97 119 179 204 131 83 87 81 91 111 142 143 155 160 182 180 174 158 161 187 306 318 328 334 332 335 338 340 341 343 343 341 339 337 335 333 333 333 333 330 331 334 336 337 337 337 337 337 338 338 337